Theta_e
337 344 351 353 353 353 353 352 351 351 351 350 348 345 344 344 343 342 341 339 339 340 342 342 344 342 343 344 344 343 344 341 341 341 342 342 342 343 343 343 345 344 348
342 347 349 352 354 354 353 353 352 352 351 350 348 345 344 343 342 341 340 339 337 336 339 341 342 342 343 343 344 343 342 340 340 340 338 338 337 339 340 339 343 342 347
344 348 348 351 353 353 352 352 353 351 350 350 347 345 343 342 341 340 339 337 336 335 335 338 340 341 341 342 342 343 341 339 339 339 337 328 331 337 338 338 337 339 342
346 348 348 348 351 351 351 352 352 351 350 349 347 344 343 341 340 338 338 336 334 333 334 336 338 339 340 340 341 343 341 339 338 336 331 328 328 336 337 336 336 336 338
344 347 346 347 351 351 352 352 351 351 350 349 347 344 343 341 338 337 336 334 331 331 331 333 335 338 338 337 340 341 337 335 332 329 329 327 326 332 335 335 333 334 334
343 346 343 347 351 351 351 351 350 350 350 348 346 343 342 340 337 336 334 332 329 328 329 330 332 335 332 336 338 336 334 331 327 323 325 328 325 332 333 333 332 331 332
340 344 343 345 347 348 350 350 350 349 349 348 347 342 341 339 337 335 333 332 328 325 325 326 328 329 328 332 334 331 328 325 318 318 319 322 324 331 331 331 332 331 331
338 343 344 339 342 345 347 347 347 348 348 347 346 343 341 339 337 336 334 333 327 323 322 322 325 326 325 326 326 323 319 317 312 311 313 316 331 330 330 330 331 331 331
332 337 341 342 339 337 340 342 344 345 345 345 344 343 341 339 338 336 335 333 328 323 320 320 321 321 321 321 321 318 314 312 303 308 312 315 328 328 330 330 330 330 330
314 318 331 340 337 338 338 334 337 339 340 341 340 337 335 334 335 334 331 333 329 326 323 322 320 319 319 318 316 312 309 307 300 303 307 316 325 326 327 328 329 329 329
308 309 312 328 337 337 338 336 332 334 335 335 335 331 330 334 333 330 328 331 331 329 326 323 320 317 315 315 313 310 305 298 299 302 306 321 322 323 324 326 326 327 329
304 307 308 309 315 327 334 338 337 335 335 336 337 333 334 332 331 330 325 327 328 328 327 323 320 315 309 304 304 306 299 298 299 301 310 322 323 324 324 323 323 323 324
303 307 309 310 310 312 326 334 335 333 334 334 333 332 332 330 329 328 325 323 321 317 315 313 311 309 308 306 305 303 301 300 300 303 313 320 322 324 324 323 322 322 322
304 306 307 309 310 311 313 329 334 332 331 333 333 332 330 328 327 325 323 322 319 317 314 312 310 310 309 308 307 305 303 302 302 304 310 316 318 320 323 323 324 324 323
303 304 306 307 309 311 309 330 330 329 329 328 333 332 330 328 326 325 322 320 319 317 315 312 309 308 307 307 306 306 302 300 299 300 305 310 310 312 317 319 320 321 322
303 303 305 309 312 311 311 325 323 324 324 324 324 331 329 328 326 323 320 318 316 315 313 311 307 305 303 304 304 301 298 298 298 296 296 299 306 305 310 312 314 318 319
302 303 306 308 313 312 320 320 319 319 319 318 318 321 326 327 323 320 317 314 313 313 311 308 304 304 302 302 300 298 298 297 296 295 293 291 292 300 304 307 308 313 315
300 303 305 311 314 314 316 316 315 314 314 314 314 315 318 319 318 316 313 311 310 308 306 303 300 298 297 298 297 295 295 293 291 290 290 290 289 289 294 301 303 307 311
300 302 303 308 312 311 311 310 308 308 308 310 311 311 311 313 312 311 308 306 306 303 300 297 293 294 296 296 296 294 292 290 288 288 287 287 287 287 286 293 296 299 303
299 301 302 307 308 308 304 303 302 302 301 303 304 305 306 305 304 303 302 302 301 296 292 290 291 290 292 294 294 291 290 288 286 284 284 286 285 285 285 285 285 288 298
298 299 302 304 302 304 303 302 302 298 298 298 298 299 299 299 297 297 296 296 295 291 289 288 288 292 286 288 289 288 287 285 284 283 282 282 283 284 284 284 285 286 288
298 300 300 304 304 304 305 299 297 296 293 294 295 294 294 294 293 293 291 289 288 287 286 286 286 284 283 283 291 289 286 288 286 283 282 282 280 282 283 284 284 286 286
297 299 300 304 304 304 297 295 292 292 292 292 291 290 290 290 288 288 287 286 285 285 283 283 283 282 281 281 282 287 281 283 282 285 281 280 280 280 280 282 282 284 284
298 299 300 304 303 297 296 295 294 295 293 290 290 288 288 286 286 286 285 284 283 283 282 282 282 281 281 280 281 282 279 280 278 276 278 279 279 280 278 280 280 282 282
298 299 301 304 297 296 296 296 296 294 289 288 287 286 286 284 284 284 284 283 282 282 281 281 280 281 281 280 280 280 279 278 277 276 274 276 278 278 278 279 279 279 280
297 300 304 299 297 295 295 295 293 289 288 287 286 285 284 282 282 282 282 282 281 281 281 281 281 281 281 280 280 280 278 277 276 275 274 274 275 277 278 278 278 279 278
Wind_Speed
4 5 9 11 12 12 13 14 13 13 15 16 16 16 16 15 15 17 17 15 15 15 14 15 15 15 16 16 15 14 15 17 19 20 20 20 21 21 21 20 17 13 18
8 7 10 10 11 12 13 13 10 12 13 16 16 16 15 14 15 16 15 16 15 14 14 14 13 14 15 15 15 14 18 17 16 15 15 14 19 19 20 20 19 16 21
8 7 7 10 11 12 12 11 10 12 14 16 16 14 14 14 15 14 14 14 12 14 13 14 14 14 15 14 14 14 18 17 16 16 14 6 12 19 19 19 19 18 19
9 7 6 10 11 12 12 11 10 11 13 15 15 14 15 13 14 14 15 13 13 14 14 14 14 14 14 15 16 17 18 19 18 15 7 7 8 18 18 18 18 18 18
7 7 7 10 11 11 11 10 10 11 12 13 14 13 14 14 14 14 15 14 14 14 14 15 14 14 15 16 17 19 20 19 16 12 8 8 7 14 17 17 16 17 17
9 8 9 11 12 12 11 10 10 12 13 13 13 13 13 14 14 13 13 13 13 14 14 14 14 15 17 17 19 19 19 17 13 9 8 9 7 16 16 16 16 17 16
7 9 9 11 12 13 12 10 10 11 12 12 13 12 13 13 13 13 13 13 13 13 14 14 15 15 17 18 18 18 18 17 9 9 8 7 7 15 16 16 16 17 17
6 7 8 10 9 10 10 10 10 10 11 12 13 14 14 13 12 12 12 12 13 13 14 14 15 16 16 18 18 18 17 15 9 8 7 6 12 15 16 16 16 17 18
5 5 4 6 8 9 10 9 9 10 10 12 14 14 13 12 12 11 11 12 12 13 14 14 14 15 16 16 16 17 17 17 8 6 7 5 14 16 17 16 17 17 17
6 5 3 5 5 6 5 8 9 10 10 11 12 12 12 11 11 10 9 10 12 12 12 13 14 16 17 17 17 17 17 16 8 7 5 5 15 17 17 17 17 16 16
4 5 4 4 4 4 5 6 8 9 12 13 12 13 11 6 6 6 6 10 11 10 11 13 14 14 15 16 17 17 14 5 6 5 4 14 17 18 18 18 18 18 18
4 2 4 4 3 2 0 2 5 6 5 7 9 9 4 5 6 6 7 9 11 11 13 14 14 14 10 5 5 11 5 6 6 5 5 17 18 19 20 19 19 19 19
3 2 2 1 1 1 2 1 2 3 4 4 6 7 7 5 5 4 3 3 3 7 4 6 6 5 6 5 5 6 6 7 5 6 12 19 21 20 19 19 19 19 19
5 5 2 1 2 3 2 2 2 3 4 5 6 9 7 5 5 4 3 3 3 3 5 5 4 5 6 7 6 7 8 7 5 5 11 20 24 24 23 22 22 21 21
5 4 3 2 3 3 3 2 1 3 3 4 7 9 8 6 6 5 4 4 3 3 4 5 4 5 5 6 6 8 9 9 9 6 6 21 24 25 23 23 23 22 21
5 5 3 3 3 3 3 2 2 3 4 4 3 5 9 7 7 6 5 4 4 4 4 5 4 5 4 5 8 9 10 9 10 9 6 8 23 24 24 25 24 23 23
5 5 5 4 3 5 4 4 3 3 4 4 4 4 6 8 8 7 5 5 4 4 7 5 5 6 5 6 9 9 9 10 9 9 8 7 8 21 24 24 24 23 24
6 7 5 3 4 4 5 4 4 4 4 4 5 5 5 8 9 7 6 5 4 5 4 5 4 6 5 6 7 6 7 8 9 9 8 7 7 7 14 24 25 25 24
7 7 5 4 5 5 5 5 6 6 5 4 5 5 7 7 8 7 6 5 6 5 3 5 4 4 6 7 9 7 7 7 7 7 9 9 10 9 7 18 21 24 24
7 6 6 5 6 7 5 6 5 5 5 4 4 6 7 7 8 8 6 6 7 5 5 4 6 6 4 6 9 8 6 5 7 7 7 7 8 8 8 9 8 9 22
7 7 8 9 7 8 6 5 4 4 3 4 4 7 7 7 8 8 6 7 5 6 5 5 4 9 5 3 5 6 5 5 7 5 4 5 8 8 9 9 7 7 8
10 10 10 10 11 8 6 3 4 4 4 4 4 7 7 7 8 8 8 6 6 6 6 5 4 4 4 4 4 3 3 1 3 5 6 5 6 5 8 9 9 9 8
13 12 11 11 12 9 8 8 7 7 5 3 4 5 4 7 7 8 8 7 6 4 5 4 5 6 5 4 7 4 3 3 0 2 4 4 6 5 5 6 9 8 9
13 11 11 12 12 11 12 9 14 8 8 3 4 5 5 6 7 6 7 7 7 5 7 5 4 4 5 5 3 6 6 3 3 1 2 3 5 6 5 5 5 6 7
12 13 12 13 11 12 11 11 9 9 6 7 7 10 8 5 6 7 7 7 8 6 6 7 6 6 4 5 4 3 4 5 5 3 0 4 4 3 3 3 4 4 5
10 11 13 14 12 13 12 12 10 13 13 11 9 8 6 4 4 5 7 7 6 7 7 6 7 9 8 7 5 4 3 3 2 3 3 1 2 4 2 3 4 4 4
Wind_Direction
197 177 137 126 129 129 127 121 124 120 115 107 100 95 89 87 82 77 72 73 71 72 72 67 63 72 67 63 61 62 73 68 68 63 57 54 50 46 38 34 34 44 49
141 160 143 135 130 126 124 123 126 120 111 108 102 97 91 87 77 73 72 67 67 69 72 71 73 70 64 57 56 63 94 78 71 62 56 54 54 49 47 38 28 38 44
142 141 144 134 129 129 125 127 128 124 116 113 107 104 95 86 82 75 73 73 73 73 71 72 66 62 64 58 49 68 95 86 71 59 49 38 58 50 47 45 42 35 35
142 141 143 141 137 135 132 132 124 125 125 121 114 107 95 89 78 79 77 74 70 69 70 71 67 64 67 57 57 72 90 79 65 56 42 35 43 51 48 46 45 41 34
142 147 153 152 145 141 137 131 123 127 127 124 116 107 101 90 85 80 77 72 67 67 66 67 69 68 66 61 70 75 73 68 61 54 42 44 35 46 48 48 45 43 39
160 156 159 161 157 150 144 138 133 132 133 131 119 108 103 95 90 88 84 78 73 72 72 72 72 70 65 68 76 77 76 70 59 48 43 38 39 47 48 49 48 45 42
169 158 168 170 166 162 152 145 140 137 137 136 128 121 113 107 102 91 85 80 79 78 78 77 78 76 71 71 74 74 73 66 56 49 37 27 41 49 48 47 48 44 42
173 170 172 173 167 163 152 145 141 139 142 142 137 130 127 120 110 101 93 84 81 80 77 76 77 77 74 74 73 70 67 64 52 47 31 18 41 50 49 48 49 46 45
74 80 115 167 164 160 158 149 150 150 147 148 145 137 130 124 118 110 102 94 89 85 82 79 77 77 75 73 73 69 65 60 52 39 29 7 42 45 43 44 43 43 43
63 63 59 121 135 148 160 163 163 157 149 144 142 136 133 136 135 129 110 98 94 90 85 78 75 72 71 68 66 63 59 52 42 31 16 18 44 46 45 40 39 43 41
62 52 50 77 102 161 176 178 174 169 157 150 151 149 146 143 131 120 114 105 94 83 84 76 72 73 78 74 72 70 66 53 50 34 10 35 45 46 44 41 39 33 29
147 83 54 57 74 89 130 229 190 168 165 164 157 152 128 118 129 124 106 96 93 76 81 78 72 63 56 52 55 62 57 55 47 31 23 43 50 49 44 42 39 36 34
157 137 82 68 18 267 215 230 199 173 146 146 148 149 133 125 132 120 115 108 93 90 78 77 68 57 59 59 55 58 59 57 50 40 35 43 47 47 48 47 43 40 37
180 181 169 313 289 266 261 228 224 159 154 153 163 152 141 140 140 133 127 116 95 97 99 82 73 70 64 65 64 68 64 65 60 52 43 50 52 47 47 43 41 38 39
196 206 235 282 262 261 254 230 158 145 144 141 160 161 148 152 144 131 122 115 110 105 95 88 75 75 66 64 62 73 72 69 64 57 49 54 57 51 52 47 43 41 39
200 211 227 253 267 216 226 132 101 92 98 88 82 152 151 148 141 129 122 111 97 96 84 92 93 86 67 79 73 79 79 73 69 60 49 39 52 48 51 48 42 42 39
201 202 210 213 237 187 136 111 93 78 91 86 75 63 130 141 134 131 124 113 101 98 102 96 81 83 76 71 76 73 74 68 64 58 51 47 39 43 50 45 41 41 40
182 195 192 193 198 128 113 105 94 78 76 80 77 77 91 113 121 123 117 108 105 86 97 94 80 78 75 81 83 65 74 72 68 56 55 50 41 36 32 43 39 36 38
187 180 179 179 150 124 108 97 88 81 73 83 78 83 89 93 98 102 110 102 104 91 89 96 72 91 100 87 86 66 54 55 50 55 51 48 44 42 39 37 37 34 34
181 173 167 161 149 122 106 99 84 82 70 64 83 82 87 93 95 102 96 101 88 102 72 73 93 59 75 95 89 73 62 52 56 48 41 46 42 40 36 33 29 23 31
180 170 177 160 163 140 136 133 122 112 105 77 78 87 90 95 99 106 102 97 90 93 107 111 108 99 55 40 100 77 52 53 61 41 31 36 37 29 31 32 33 29 23
181 185 178 171 164 160 160 119 118 128 82 91 91 85 89 100 103 107 109 105 109 115 103 94 100 113 85 0 119 110 148 327 58 55 36 38 36 32 35 34 38 38 33
191 182 175 173 167 161 126 114 97 94 100 93 85 90 67 89 91 108 111 117 111 107 115 113 106 108 124 30 52 126 106 199 64 7 37 24 36 41 30 26 30 36 35
189 173 171 173 168 149 149 145 159 153 151 142 123 113 98 84 94 99 106 111 111 112 106 103 107 115 123 129 83 46 57 109 133 23 3 356 15 33 27 27 32 39 32
170 174 169 171 161 159 157 161 161 142 114 120 123 121 113 96 103 112 121 116 112 109 102 112 111 99 86 108 100 126 65 51 55 111 253 330 342 359 42 41 52 41 30
164 170 173 167 165 163 160 161 159 146 144 139 144 132 131 120 112 105 108 116 112 108 114 113 100 92 96 90 90 87 129 138 133 113 100 343 317 305 347 46 49 30 25